This demonstration page uses our WeatherBlox Daily Observations layout. Learn more.

38.88101, -77.10428

Hourly Observations for June 6, 2017

Temp ( °F °C ) Dew Point ( °F °C ) Humidity (%) Winds ( mph kmh ) Pressure ( in mb ) Visibility ( mi km ) Precip ( " mm )
12:52 am 00:52 Mostly Cloudy 70 21.1 67 19.4 90 90 SW 5 7 29.69 1005 10 16.0934 0 0
1:52 am 01:52 Cloudy 69 20.6 67 19.4 93 93 SW 3 6 29.68 1005 10 16.0934 0 0
2:52 am 02:52 Cloudy 68 20 66 18.9 93 93 SW 6 9 29.67 1005 8 12.87472 0 0
3:52 am 03:52 Mostly Cloudy 67 19.4 65 18.3 93 93 SW 3 6 29.67 1005 10 16.0934 0 0
4:52 am 04:52 Mostly Cloudy 67 19.4 64 17.8 91 91 N 5 7 29.67 1005 10 16.0934 0 0
5:52 am 05:52 Partly Cloudy 67 19.4 62 16.7 84 84 NNW 12 19 29.7 1006 10 16.0934 0 0
6:52 am 06:52 Partly Cloudy 67 19.4 62 16.7 84 84 NNW 12 19 29.72 1006 10 16.0934 0 0
7:52 am 07:52 Partly Cloudy 69 20.6 61 16.1 76 76 NW 14 22 29.74 1007 10 16.0934 0 0
8:52 am 08:52 Mostly Cloudy with Light Rain 71 21.7 57 13.9 61 61 WNW 17 28 29.76 1008 10 16.0934 0 0.0254
9:52 am 09:52 Partly Cloudy 72 22.2 56 13.3 57 57 NW 16 26 29.76 1008 10 16.0934 0 0
10:52 am 10:52 Partly Cloudy 75 23.9 53 11.7 46 46 NNW 20 31 29.77 1008 10 16.0934 0 0
11:52 am 11:52 Partly Cloudy 76 24.4 53 11.7 45 45 NNW 16 26 29.77 1008 10 16.0934 0 0
12:52 pm 12:52 Partly Cloudy 77 25 52 11.1 42 42 NW 16 26 29.76 1008 10 16.0934 0 0
1:52 pm 13:52 Partly Cloudy 77 25 50 10 39 39 NNW 14 22 29.76 1008 10 16.0934 0 0
2:52 pm 14:52 Mostly Cloudy 76 24.4 50 10 40 40 N 9 15 29.75 1008 10 16.0934 0 0
3:52 pm 15:52 Mostly Cloudy 76 24.4 51 10.6 42 42 NNW 9 15 29.76 1008 10 16.0934 0 0
4:52 pm 16:52 Mostly Cloudy 75 23.9 50 10 41 41 NNW 14 22 29.76 1008 10 16.0934 0 0
5:52 pm 17:52 Mostly Cloudy 76 24.4 51 10.6 42 42 W 7 11 29.76 1008 10 16.0934 0 0
6:52 pm 18:52 Mostly Cloudy 76 24.4 49 9.4 39 39 WNW 13 20 29.77 1008 10 16.0934 0 0
7:52 pm 19:52 Mostly Cloudy 74 23.3 49 9.4 41 41 NW 8 13 29.79 1009 10 16.0934 0 0
8:52 pm 20:52 Mostly Cloudy 71 21.7 50 10 47 47 NNW 7 11 29.8 1009 10 16.0934 0 0
9:52 pm 21:52 Mostly Cloudy 70 21.1 50 10 49 49 NW 7 11 29.82 1010 10 16.0934 0 0
10:52 pm 22:52 Partly Cloudy 69 20.6 51 10.6 53 53 NW 12 19 29.83 1010 10 16.0934 0 0
11:52 pm 23:52 Clear 68 20 51 10.6 55 55 NW 10 17 29.84 1010 10 16.0934 0 0

Powered by AerisWeather